Flag for U.S.A. Weather past 2 weeks in Talkeetna, Alaska, U.S.A.

Now
34 °F

Overcast.


Feels Like: 34 °F
Forecast: 32 / 41 °F
Wind: No wind

Location: Talkeetna Weather Reporting Station

Current Time: Mar 5, 2015 at 6:09:20 AM

Latest Report: Mar 5, 2015 at 4:53 AM


Visibility: 10 mi

Pressure: 29.81 "Hg

Humidity: 92%

Dew point: 32 °F

Location of TalkeetnaLocation

Historic Weather in Talkeetna — Graph

°F

Talkeetna temperature yesterday

Maximum temperature yesterday: 39 °F (at 1:53 PM)
Minimum temperature yesterday: 33 °F (at 12:53 AM)
Average temperature yesterday: 36 °F

Past Weeks' High & Low Weather Summary

 TemperatureHumidityPressure
High42 °F (Feb 22, 3:53 PM)97% (Feb 23, 4:53 AM)30.60 "Hg (Feb 23, 4:53 AM)
Low3 °F (Feb 27, 6:53 AM)34% (Mar 2, 2:53 PM)29.80 "Hg (Mar 5, 1:00 AM)
Average28 °F75%30.20 "Hg
* Reported Feb 18 4:53 AM — Mar 5 4:53 AM, Talkeetna, Weather by CustomWeather, © 2015

Note: Actual official high and low records may vary slightly from our data, if they occured in-between our weather recording intervals... More about our weather records

Advertising

Talkeetna weather history for previous 24 hours

 ConditionsComfort  
Time TempWeatherWind HumidityBarometerVisibility
4:53 AM
Thu, Mar 5
34 °FOvercast.No wind92%29.81 "Hg10 mi
3:53 AM33 °FOvercast.No wind96%29.81 "Hg10 mi
2:53 AM34 °FOvercast.No wind92%29.81 "Hg10 mi
1:53 AM33 °FMostly cloudy.No wind96%29.81 "Hg8 mi
1:00 AM34 °FLight rain. Mostly cloudy.No wind92%29.80 "Hg9 mi
12:03 AM33 °FLight rain. Mostly cloudy.No wind96%29.81 "Hg7 mi
11:53 PM
Wed, Mar 4
33 °FLight rain. Mostly cloudy.No wind96%29.83 "Hg8 mi
11:01 PM34 °FLight rain. Mostly cloudy.No wind92%29.81 "Hg9 mi
9:53 PM34 °FLight rain. Overcast.No wind92%29.82 "Hg9 mi
8:53 PM35 °FLight rain. Mostly cloudy.No wind88%29.83 "Hg9 mi
7:53 PM35 °FLight rain. Mostly cloudy.No wind92%29.83 "Hg10 mi
6:53 PM36 °FLight rain. Overcast.No wind92%29.83 "Hg10 mi
5:53 PM38 °FOvercast.No wind86%29.84 "Hg10 mi
4:53 PM38 °FMore clouds than sun.No wind86%29.85 "Hg10 mi
4:04 PM37 °FMore clouds than sun.5 mph86%29.85 "Hg10 mi
3:53 PM38 °FOvercast.5 mph86%29.86 "Hg10 mi
2:53 PM39 °FOvercast.No wind82%29.87 "Hg10 mi
2:02 PM39 °FCloudy.No wind82%29.88 "Hg10 mi
1:53 PM39 °FMostly cloudy.No wind86%29.90 "Hg10 mi
12:53 PM38 °FCloudy.3 mph86%29.92 "Hg10 mi
11:53 AM36 °FMostly cloudy.3 mph89%29.92 "Hg10 mi
10:53 AM35 °FLight rain. Mostly cloudy.3 mph92%29.93 "Hg10 mi
9:53 AM34 °FMore clouds than sun.No wind92%29.94 "Hg10 mi
8:53 AM34 °FLight rain. Fog.No wind92%29.95 "Hg3 mi
7:53 AM34 °FLight rain. Mostly cloudy.3 mph92%29.95 "Hg10 mi
6:53 AM34 °FLight rain. Mostly cloudy.No wind92%29.96 "Hg10 mi
Weather by CustomWeather, © 2015

See weather overviewHow to use our weather pages